This demonstration page uses our WeatherBlox Daily Observations layout. Learn more.

Left ArrowRight Arrow

39.12711, -84.51439

Hourly Observations for January 14, 2018

Temp ( °F °C ) Dew Point ( °F °C ) Humidity (%) Winds ( mph kmh ) Pressure ( in mb ) Visibility ( mi km ) Precip ( " mm )
12:53 am 00:53 Cloudy 14 -10 10 -12.2 84 84 NE 5 7 30.68 1039 10 16 N/A
1:53 am 01:53 Cloudy 15 -9.4 11 -11.7 84 84 N N/A 30.68 1039 10 16 N/A
2:53 am 02:53 Cloudy 15 -9.4 11 -11.7 84 84 N N/A 30.69 1039 10 16 N/A
3:53 am 03:53 Cloudy 16 -8.9 12 -11.1 84 84 N N/A 30.70 1040 10 16 N/A
4:53 am 04:53 Cloudy 15 -9.4 8 -13.3 74 74 SSE 3 6 30.70 1040 10 16 N/A
5:53 am 05:53 Cloudy 15 -9.4 8 -13.3 74 74 N N/A 30.71 1040 10 16 N/A
6:53 am 06:53 Mostly Cloudy 13 -10.6 6 -14.4 74 74 S 3 6 30.72 1040 10 16 N/A
7:53 am 07:53 Partly Cloudy 11 -11.7 6 -14.4 81 81 N N/A 30.73 1041 10 16 N/A
8:53 am 08:53 Mostly Cloudy 10 -12.2 5 -15 80 80 N N/A 30.76 1042 10 16 N/A
9:53 am 09:53 Sunny 15 -9.4 7 -13.9 70 70 N N/A 30.76 1042 10 16 N/A
10:53 am 10:53 Sunny 17 -8.3 5 -15 59 59 S 9 15 30.76 1042 10 16 N/A
11:53 am 11:53 Sunny 19 -7.2 4 -15.6 51 51 N N/A 30.72 1040 10 16 N/A
12:53 pm 12:53 Sunny 19 -7.2 4 -15.6 51 51 SW 3 6 30.68 1039 10 16 N/A
1:53 pm 13:53 Sunny 21 -6.1 4 -15.6 47 47 N N/A 30.64 1038 10 16 N/A
2:53 pm 14:53 Sunny 21 -6.1 5 -15 50 50 SE 6 9 30.61 1037 10 16 N/A
3:53 pm 15:53 Sunny 21 -6.1 5 -15 50 50 ENE 7 11 30.59 1036 10 16 N/A
4:53 pm 16:53 Sunny 20 -6.7 4 -15.6 50 50 SE 6 9 30.60 1036 10 16 N/A
5:53 pm 17:53 Clear 19 -7.2 4 -15.6 51 51 SE 6 9 30.60 1036 10 16 N/A
6:53 pm 18:53 Clear 17 -8.3 4 -15.6 56 56 E 5 7 30.58 1035 10 16 N/A
7:53 pm 19:53 Clear 15 -9.4 4 -15.6 61 61 ENE 3 6 30.57 1035 10 16 N/A
8:53 pm 20:53 Clear 13 -10.6 6 -14.4 74 74 N N/A 30.55 1035 10 16 N/A
9:53 pm 21:53 Clear 15 -9.4 6 -14.4 67 67 NNE 3 6 30.53 1034 10 16 N/A
10:53 pm 22:53 Mostly Cloudy 15 -9.4 7 -13.9 70 70 NE 3 6 30.51 1033 10 16 N/A
11:53 pm 23:53 Cloudy 16 -8.9 8 -13.3 71 71 NNE 3 6 30.49 1033 10 16 N/A

Powered by AerisWeather